TimeCST,TemperatureF,Dew PointF,Humidity,Sea Level PressureIn,VisibilityMPH,Wind Direction,Wind SpeedMPH,Gust SpeedMPH,PrecipitationIn,Events,Conditions,WindDirDegrees,DateUTC
12:54 AM,17.1,10.0,74,30.00,10.0,NW,9.2,-,N/A,,Scattered Clouds,320,2014-01-31 06:54:00
1:54 AM,16.0,9.0,74,30.04,10.0,NW,8.1,-,N/A,,Overcast,310,2014-01-31 07:54:00
2:54 AM,15.1,8.1,74,30.06,10.0,West,6.9,-,N/A,,Overcast,280,2014-01-31 08:54:00
3:54 AM,14.0,7.0,74,30.07,10.0,WNW,5.8,-,N/A,,Overcast,290,2014-01-31 09:54:00
4:54 AM,12.0,6.1,77,30.11,10.0,West,8.1,-,N/A,,Mostly Cloudy,280,2014-01-31 10:54:00
5:54 AM,10.9,5.0,77,30.12,10.0,NW,8.1,-,N/A,,Overcast,310,2014-01-31 11:54:00
6:54 AM,10.9,3.9,73,30.14,10.0,NW,6.9,-,N/A,,Overcast,320,2014-01-31 12:54:00
7:54 AM,10.0,3.0,73,30.15,10.0,North,8.1,-,N/A,,Overcast,350,2014-01-31 13:54:00
8:54 AM,10.9,3.0,70,30.17,10.0,NNW,4.6,-,N/A,,Overcast,340,2014-01-31 14:54:00
9:54 AM,10.9,3.0,70,30.18,10.0,WNW,5.8,-,N/A,,Overcast,300,2014-01-31 15:54:00
10:54 AM,12.0,3.0,67,30.23,10.0,West,4.6,-,N/A,,Overcast,260,2014-01-31 16:54:00
11:54 AM,12.9,3.9,67,30.21,10.0,WSW,4.6,-,N/A,,Overcast,240,2014-01-31 17:54:00
12:54 PM,14.0,3.9,64,30.21,10.0,WNW,6.9,-,N/A,,Overcast,300,2014-01-31 18:54:00
1:54 PM,15.1,5.0,64,30.18,10.0,NNW,4.6,-,N/A,,Overcast,340,2014-01-31 19:54:00
2:54 PM,15.1,5.0,64,30.17,10.0,WNW,5.8,-,N/A,,Overcast,300,2014-01-31 20:54:00
3:54 PM,14.0,3.9,64,30.18,10.0,NW,4.6,-,N/A,,Overcast,320,2014-01-31 21:54:00
4:54 PM,14.0,3.9,64,30.17,10.0,Calm,Calm,-,N/A,,Mostly Cloudy,0,2014-01-31 22:54:00
5:54 PM,12.9,5.0,71,30.18,10.0,Calm,Calm,-,N/A,,Overcast,0,2014-01-31 23:54:00
6:54 PM,12.9,3.9,67,30.17,10.0,Calm,Calm,-,N/A,,Overcast,0,2014-02-01 00:54:00
7:54 PM,12.9,5.0,71,30.17,10.0,Calm,Calm,-,N/A,,Overcast,0,2014-02-01 01:54:00
8:54 PM,12.9,5.0,71,30.16,10.0,North,3.5,-,N/A,,Overcast,350,2014-02-01 02:54:00
9:54 PM,12.9,6.1,74,30.16,10.0,Calm,Calm,-,N/A,,Overcast,0,2014-02-01 03:54:00
10:54 PM,12.9,6.1,74,30.14,10.0,Calm,Calm,-,0.00,Snow,Light Snow,0,2014-02-01 04:54:00
11:54 PM,15.1,7.0,70,30.14,7.0,Calm,Calm,-,0.00,Snow,Light Snow,0,2014-02-01 05:54:00